Weather History for Burley, ID

Change the Weather History Date:

Thursday, January 2, 2014

  Actual Average Record
Temperature  
Mean Temperature 32 °F 26 °F  
Max Temperature 44 °F 34 °F 53 °F (1997)
Min Temperature 20 °F 18 °F -15 °F (1949)
Degree Days  
Heating Degree Days 33 39  
Month to date heating degree days 67 78  
Since 1 July heating degree days 2906 2958  
Cooling Degree Days 0 0  
Month to date cooling degree days 0 0  
Year to date cooling degree days 0 0  
Moisture  
Dew Point 23 °F    
Average Humidity 77    
Maximum Humidity 100    
Minimum Humidity 53    
Precipitation  
Precipitation 0.00 in 0.04 in 0.46 in (1997)
Month to date precipitation 0.00 0.07  
Year to date precipitation 0.00 0.07  
Sea Level Pressure  
Sea Level Pressure 30.34 in    
Wind  
Wind Speed 4 mph (ENE)    
Max Wind Speed 13 mph    
Max Gust Speed 16 mph    
Visibility 6 miles    
Events      
T = Trace of Precipitation, MM = Missing Value Source: NWS Daily Summary

Daily Weather History Graph

Daily Weather History Graph

Search for Another Location

Airport:

Trip Planner

Search our weather history database for the weather conditions in past years. The results will help you decide how hot, cold, wet, or windy it might be!

Date:

Astronomy

Jan. 02, 2014 Rise Set
Actual Time 8:04 AM MST 5:13 PM MST
Civil Twilight 7:33 AM MST 5:45 PM MST
Nautical Twilight 6:57 AM MST 6:20 PM MST
Astronomical Twilight 6:23 AM MST 6:55 PM MST
Moon 8:47 AM MST (1/2) 7:18 PM MST (1/2)
Length of Visible Light 10h 12m
Length of Day
9h 08m
Waxing Crescent, 3% of the Moon is Illuminated
Jan 2
Waxing Crescent
Jan 7
First Quarter
Jan 15
Full
Jan 23
Last Quarter
Jan 30
New

Hourly Weather History & Observations

Time (MST) Temp. Windchill Dew Point Humidity Pressure Visibility Wind Dir Wind Speed Gust Speed Precip Events Conditions
12:14 AM 24.1 °F 13.7 °F 24.1 °F 100% 30.36 in 3.0 mi NE 10.4 mph - N/A   Overcast
12:22 AM 24.1 °F 14.4 °F 24.1 °F 100% 30.36 in 2.5 mi NE 9.2 mph - N/A   Overcast
12:29 AM 24.1 °F 13.1 °F 24.1 °F 100% 30.36 in 3.0 mi NE 11.5 mph - N/A   Overcast
12:53 AM 25.0 °F 14.2 °F 24.1 °F 96% 30.41 in 5.0 mi NE 11.5 mph - N/A   Overcast
1:48 AM 24.8 °F 14.6 °F 24.8 °F 100% 30.35 in 6.0 mi ENE 10.4 mph - N/A   Overcast
1:53 AM 25.0 °F 16.3 °F 24.1 °F 96% 30.41 in 6.0 mi NE 8.1 mph - N/A   Overcast
2:17 AM 25.0 °F 15.5 °F 24.1 °F 96% 30.36 in 5.0 mi NE 9.2 mph - N/A   Overcast
2:27 AM 25.0 °F 14.2 °F 24.1 °F 96% 30.36 in 6.0 mi ENE 11.5 mph - N/A   Overcast
2:53 AM 25.0 °F 14.8 °F 24.1 °F 96% 30.41 in 5.0 mi ENE 10.4 mph - N/A   Overcast
3:18 AM 25.0 °F 17.1 °F 24.1 °F 96% 30.35 in 6.0 mi ENE 6.9 mph - N/A   Overcast
3:45 AM 24.1 °F 13.7 °F 23.0 °F 96% 30.35 in 5.0 mi ENE 10.4 mph - N/A   Overcast
3:53 AM 23.0 °F 13.1 °F 21.9 °F 96% 30.41 in 5.0 mi ENE 9.2 mph - N/A   Overcast
4:53 AM 23.0 °F 17.0 °F 21.9 °F 96% 30.40 in 6.0 mi East 4.6 mph - N/A   Overcast
5:04 AM 24.1 °F 15.2 °F 23.0 °F 96% 30.33 in 4.0 mi East 8.1 mph - N/A   Overcast
5:53 AM 24.1 °F 13.7 °F 23.0 °F 96% 30.41 in 4.0 mi ENE 10.4 mph - N/A   Overcast
6:05 AM 23.0 °F 13.1 °F 21.9 °F 96% 30.33 in 8.0 mi ENE 9.2 mph - N/A   Overcast
6:53 AM 21.9 °F 13.4 °F 21.0 °F 96% 30.42 in 9.0 mi ENE 6.9 mph - N/A   Overcast
7:15 AM 21.0 °F 14.6 °F 19.9 °F 96% 30.32 in 10.0 mi ENE 4.6 mph - N/A   Scattered Clouds
7:53 AM 21.0 °F 13.4 °F 19.0 °F 92% 30.43 in 9.0 mi ENE 5.8 mph - N/A   Clear
8:05 AM 21.0 °F 13.4 °F 19.9 °F 96% 30.32 in 8.0 mi East 5.8 mph - N/A   Scattered Clouds
8:17 AM 21.0 °F 13.4 °F 19.9 °F 96% 30.32 in 6.0 mi East 5.8 mph - N/A   Mostly Cloudy
8:44 AM 21.0 °F 16.2 °F 19.9 °F 96% 30.32 in 4.0 mi Variable 3.5 mph - N/A   Overcast
8:53 AM 21.0 °F 12.4 °F 19.9 °F 96% 30.43 in 3.0 mi ENE 6.9 mph - N/A   Overcast
9:05 AM 21.0 °F 12.4 °F 21.0 °F 100% 30.32 in 2.0 mi East 6.9 mph - N/A   Overcast
9:22 AM 21.9 °F 11.7 °F 21.0 °F 96% 30.33 in 3.0 mi East 9.2 mph - N/A   Overcast
9:53 AM 23.0 °F 13.9 °F 23.0 °F 100% 30.43 in 4.0 mi ENE 8.1 mph - N/A   Overcast
10:08 AM 24.1 °F 16.0 °F 21.9 °F 91% 30.33 in 6.0 mi ENE 6.9 mph - N/A   Mostly Cloudy
10:23 AM 25.0 °F 16.3 °F 24.1 °F 96% 30.33 in 5.0 mi NE 8.1 mph - N/A   Mostly Cloudy
10:53 AM 27.0 °F 18.0 °F 25.0 °F 92% 30.42 in 6.0 mi ENE 9.2 mph - N/A   Scattered Clouds
11:53 AM 34.0 °F 27.2 °F 27.0 °F 75% 30.38 in 10.0 mi ENE 8.1 mph - N/A   Clear
12:53 PM 39.0 °F 34.8 °F 27.0 °F 62% 30.33 in 10.0 mi NNE 5.8 mph - N/A   Clear
1:53 PM 41.0 °F - 27.0 °F 57% 30.29 in 10.0 mi Calm Calm - N/A   Clear
2:53 PM 42.1 °F - 27.0 °F 55% 30.28 in 10.0 mi Calm Calm - N/A   Clear
3:53 PM 43.0 °F - 27.0 °F 53% 30.27 in 10.0 mi Calm Calm - N/A   Clear
4:53 PM 39.0 °F - 26.1 °F 60% 30.27 in 10.0 mi Calm Calm - N/A   Clear
5:53 PM 33.1 °F - 27.0 °F 78% 30.28 in 10.0 mi Calm Calm - N/A   Clear
6:53 PM 30.0 °F - 25.0 °F 82% 30.29 in 10.0 mi Calm Calm - N/A   Clear
7:53 PM 26.1 °F - 21.9 °F 84% 30.29 in 10.0 mi Calm Calm - N/A   Clear
8:53 PM 25.0 °F - 21.0 °F 85% 30.28 in 9.0 mi Calm Calm - N/A   Clear
9:53 PM 21.9 °F - 19.9 °F 92% 30.27 in 8.0 mi Calm Calm - N/A   Clear
10:53 PM 23.0 °F 18.4 °F 19.9 °F 88% 30.25 in 6.0 mi NNE 3.5 mph - N/A   Clear
11:41 PM 21.9 °F - 19.0 °F 89% 30.14 in 5.0 mi Calm Calm - N/A   Clear
11:53 PM 21.0 °F - 19.0 °F 92% 30.21 in 5.0 mi Calm Calm - N/A   Clear